Budapest/Ferihegy

Airport
ICAO code: 
LHBP
Summary
ICAO Region: 
EUR
Territory: 
Location: 
Budapest, Hungary,
Coordinates: 
Aerial View: 
47° 26' 24" N, 19° 15' 42" E
Metar
Observation
LHBP 262230Z 26004KT 9999 FEW028 M02/M03 Q1025 NOSIG
Station
Budapest / Ferihegy
Date/Time
2022-01-26 22:30:00
Wind direction
260°
Wind speed
04 kts
Lowest cloud amount
few clouds
Temperature
-2°C
Dew point
-3°C
Humidity
92%
QNH
1025 hPa
Weather condition
n/a

Description

International airport serving capital of Hungary.

Climatology

Humid Continental climate (Köppen climate classification Dfb) - Variable weather patterns and a large seasonal temperature variance. Summers are often warm and humid with frequent thunderstorms and winters can be very cold with frequent snowfall and persistent snow cover.

Runways

Designator Length Width Surface Rops
13R/31L 3010 45 CON Yes/Yes
13L/31R 3707 45 CON Yes/Yes
Airport map: 
Aerial View: 

Accidents and Serious Incidents at or in the vicinity of LHBP

SKYbrary Partners:

Safety knowledge contributed by: